Home > Weather > Bad Nauheim > Past weeks

Flag for Germany Past Weather in Bad Nauheim, Hesse, Germany — Yesterday and Last 2 Weeks

Now
75 °F

Broken clouds.


Feels Like: 78 °F
Forecast: 55 / 73 °F
Wind: 7 mph from Northwest

Location: Frankfurt-M-Flughafen Airport

Current Time: Jul 30, 2016 at 8:53:43 PM

Latest Report: Jul 30, 2016 at 8:20 PM


Visibility: N/A

Pressure: 29.89 "Hg

Humidity: 50%

Dew Point: 55 °F

Location of Bad NauheimLocation

Past Weather in Bad Nauheim — Graph

°F

Bad Nauheim Temperature Yesterday

Maximum temperature yesterday: 81 °F (at 4:20 PM)
Minimum temperature yesterday: 63 °F (at 4:20 AM)
Average temperature yesterday: 70 °F

High & Low Weather Summary for the Past Weeks

 TemperatureHumidityPressure
High95 °F (Jul 20, 2:50 PM)100% (Jul 22, 4:50 AM)30.30 "Hg (Jul 22, 4:50 AM)
Low50 °F (Jul 16, 2:50 AM)22% (Jul 20, 6:20 PM)29.89 "Hg (Jul 20, 5:50 PM)
Average72 °F70%30.06 "Hg
* Reported Jul 15 7:20 PM — Jul 30 7:20 PM, Bad Nauheim, Weather by CustomWeather, © 2016

Note: Actual official high and low records may vary slightly from our data, if they occured in-between our weather recording intervals... More about our weather records

Advertising

Bad Nauheim Weather History for the Previous 24 Hours

Scroll right to see more
 ConditionsComfort  
Time TempWeatherWind HumidityBarometerVisibility
7:20 PM
Sat, Jul 30
77 °FBroken clouds.6 mph54%29.89 "HgN/A
6:50 PM77 °FBroken clouds.6 mph54%29.89 "HgN/A
6:20 PM79 °FBroken clouds.7 mph51%29.89 "HgN/A
5:50 PM79 °FBroken clouds.6 mph48%29.89 "HgN/A
5:20 PM79 °FBroken clouds.8 mph48%29.89 "HgN/A
4:50 PM79 °FBroken clouds.8 mph48%29.89 "HgN/A
4:20 PM81 °FBroken clouds.10 mph48%29.89 "HgN/A
3:50 PM81 °FBroken clouds.7 mph48%29.92 "HgN/A
3:20 PM79 °FBroken clouds.7 mph51%29.92 "HgN/A
2:50 PM77 °FBroken clouds.7 mph54%29.92 "HgN/A
2:20 PM79 °FScattered clouds.8 mph48%29.92 "HgN/A
1:50 PM77 °FScattered clouds.9 mph51%29.92 "HgN/A
1:20 PM75 °FPartly sunny.7 mph54%29.92 "HgN/A
12:50 PM75 °FPartly sunny.9 mph57%29.92 "HgN/A
12:20 PM75 °FScattered clouds.7 mph57%29.92 "HgN/A
11:50 AM73 °FScattered clouds.9 mph65%29.92 "HgN/A
11:20 AM73 °FScattered clouds.6 mph65%29.92 "HgN/A
10:50 AM73 °FScattered clouds.6 mph65%29.92 "HgN/A
10:20 AM72 °FPartly sunny.8 mph69%29.95 "HgN/A
9:50 AM72 °FPartly sunny.8 mph69%29.95 "HgN/A
9:20 AM68 °FPartly sunny.8 mph78%29.95 "HgN/A
8:50 AM68 °FPartly sunny.8 mph78%29.95 "HgN/A
8:20 AM68 °FPartly sunny.8 mph78%29.95 "HgN/A
7:50 AM66 °FScattered clouds.9 mph83%29.92 "HgN/A
7:20 AM66 °FScattered clouds.7 mph83%29.92 "HgN/A
6:50 AM64 °FPassing clouds.5 mph83%29.92 "HgN/A
6:20 AM64 °FPassing clouds.6 mph83%29.92 "HgN/A
5:50 AM64 °FPassing clouds.6 mph83%29.92 "HgN/A
5:20 AM64 °FPassing clouds.8 mph83%29.92 "HgN/A
4:50 AM64 °FPartly cloudy.7 mph83%29.92 "HgN/A
4:20 AM64 °FPassing clouds.8 mph83%29.92 "HgN/A
3:50 AM64 °FPassing clouds.6 mph83%29.92 "HgN/A
3:20 AM64 °FPassing clouds.7 mph83%29.92 "HgN/A
2:50 AM64 °FPassing clouds.6 mph88%29.92 "HgN/A
2:20 AM66 °FPassing clouds.5 mph83%29.92 "HgN/A
1:50 AM66 °FPassing clouds.6 mph83%29.92 "HgN/A
1:20 AM66 °FPassing clouds.6 mph83%29.92 "HgN/A
12:50 AM66 °FPassing clouds.3 mph88%29.92 "HgN/A
12:20 AM66 °FPartly cloudy.2 mph83%29.92 "HgN/A
11:50 PM
Fri, Jul 29
68 °FPartly cloudy.5 mph78%29.92 "HgN/A
11:20 PM66 °FPassing clouds.5 mph83%29.92 "HgN/A
10:50 PM66 °FPartly cloudy.6 mph78%29.92 "HgN/A
10:20 PM68 °FPartly cloudy.7 mph73%29.92 "HgN/A
9:50 PM70 °FBroken clouds.7 mph64%29.92 "HgN/A
9:20 PM72 °FBroken clouds.10 mph61%29.92 "HgN/A
8:50 PM72 °FBroken clouds.12 mph61%29.92 "HgN/A
8:20 PM73 °FScattered showers. Broken clouds.10 mph57%29.92 "HgN/A
Weather by CustomWeather, © 2016

See weather overviewHow to use our weather pages